Total_Precipitation_Accumulation
0.24 0.29 0.37 0.52 0.45 0.31 0.18 0.07 0.04 0.06 0.07 0.06 0.05 0.06 0.08 0.11 0.17 0.26 0.23 0.20 0.16 0.18 0.31 0.49 0.57 0.61 0.64 0.59 0.47 0.38 0.38 0.43 0.49 0.53 0.55 0.58 0.54 0.47 0.46 0.45 0.50 0.54 0.63 0.64 0.57 0.49 0.37 0.32 0.26
0.24 0.37 0.59 0.68 0.46 0.26 0.12 0.07 0.06 0.07 0.08 0.09 0.08 0.08 0.11 0.16 0.17 0.18 0.26 0.30 0.25 0.26 0.41 0.49 0.61 0.65 0.67 0.65 0.55 0.48 0.43 0.47 0.53 0.58 0.62 0.66 0.62 0.54 0.57 0.55 0.53 0.55 0.56 0.52 0.45 0.42 0.35 0.26 0.21
0.32 0.52 0.81 0.70 0.43 0.25 0.12 0.07 0.07 0.07 0.08 0.11 0.14 0.15 0.20 0.25 0.21 0.25 0.31 0.38 0.41 0.40 0.51 0.65 0.72 0.75 0.76 0.71 0.66 0.60 0.54 0.56 0.61 0.64 0.71 0.70 0.71 0.68 0.71 0.63 0.55 0.50 0.45 0.42 0.39 0.34 0.29 0.22 0.20
0.48 0.80 0.92 0.69 0.37 0.17 0.12 0.09 0.08 0.10 0.10 0.12 0.19 0.28 0.35 0.31 0.27 0.32 0.39 0.44 0.54 0.58 0.67 0.87 0.97 0.97 0.91 0.83 0.77 0.73 0.67 0.66 0.68 0.71 0.77 0.80 0.82 0.81 0.78 0.64 0.50 0.41 0.37 0.37 0.35 0.29 0.26 0.24 0.20
0.75 1.04 0.92 0.61 0.31 0.15 0.10 0.10 0.11 0.13 0.13 0.14 0.22 0.37 0.49 0.43 0.40 0.49 0.53 0.57 0.67 0.69 0.82 1.05 1.20 1.23 1.09 0.97 0.90 0.88 0.86 0.85 0.83 0.80 0.86 0.95 0.93 0.88 0.81 0.63 0.45 0.36 0.34 0.36 0.34 0.31 0.30 0.29 0.24
1.07 1.08 0.87 0.55 0.26 0.16 0.11 0.12 0.14 0.16 0.17 0.19 0.27 0.44 0.62 0.64 0.68 0.76 0.78 0.75 0.84 0.82 0.94 1.18 1.34 1.30 1.22 1.18 1.10 1.08 1.09 1.03 0.98 0.95 1.04 1.08 1.02 0.90 0.80 0.67 0.52 0.41 0.34 0.33 0.32 0.32 0.32 0.30 0.29
1.12 0.95 0.68 0.42 0.25 0.20 0.15 0.13 0.17 0.19 0.22 0.25 0.28 0.54 0.75 0.93 1.05 1.11 1.15 1.13 1.10 1.10 1.20 1.36 1.40 1.32 1.22 1.16 1.18 1.18 1.23 1.25 1.13 1.03 1.06 1.07 1.00 0.87 0.80 0.63 0.58 0.50 0.43 0.38 0.34 0.32 0.32 0.31 0.30
1.12 1.08 0.66 0.41 0.30 0.24 0.20 0.20 0.18 0.21 0.26 0.29 0.36 0.62 0.85 1.05 1.31 1.53 1.54 1.67 1.60 1.56 1.55 1.57 1.59 1.51 1.34 1.17 1.21 1.21 1.18 1.15 1.17 1.09 0.94 0.88 0.82 0.72 0.71 0.54 0.53 0.51 0.45 0.40 0.36 0.34 0.36 0.32 0.26
1.18 1.24 0.74 0.40 0.33 0.28 0.27 0.29 0.25 0.22 0.31 0.42 0.45 0.60 0.89 1.20 1.58 1.99 2.02 2.11 2.11 1.99 1.95 1.79 1.79 1.71 1.64 1.48 1.35 1.37 1.26 1.15 1.11 1.07 0.90 0.83 0.88 0.78 0.61 0.42 0.41 0.42 0.40 0.37 0.34 0.33 0.33 0.27 0.21
1.28 1.07 0.57 0.32 0.30 0.33 0.34 0.38 0.36 0.34 0.41 0.51 0.63 0.69 1.08 1.57 1.92 2.16 2.23 2.15 2.28 2.19 2.15 2.01 1.92 1.88 1.89 1.65 1.52 1.55 1.41 1.25 1.11 0.99 0.98 0.90 0.88 0.84 0.65 0.51 0.40 0.42 0.39 0.37 0.38 0.39 0.35 0.27 0.21
1.03 0.71 0.47 0.38 0.37 0.40 0.44 0.45 0.47 0.50 0.51 0.53 0.61 0.73 1.10 1.64 2.14 2.25 2.42 2.37 2.40 2.51 2.43 2.28 2.15 2.03 2.03 1.96 1.65 1.57 1.44 1.36 1.26 1.08 1.03 1.00 1.01 0.94 0.83 0.73 0.56 0.51 0.42 0.41 0.41 0.42 0.35 0.30 0.27
0.84 0.56 0.53 0.53 0.48 0.53 0.54 0.53 0.52 0.53 0.52 0.50 0.61 0.73 1.06 1.48 1.94 2.30 2.47 2.55 2.41 2.57 2.63 2.46 2.34 2.25 2.16 2.09 1.88 1.66 1.52 1.37 1.28 1.14 1.01 1.05 1.08 0.98 0.86 0.74 0.63 0.56 0.46 0.43 0.42 0.38 0.33 0.28 0.26
0.75 0.58 0.58 0.61 0.60 0.65 0.67 0.61 0.58 0.53 0.51 0.58 0.80 1.00 1.18 1.41 1.70 2.19 2.53 2.61 2.49 2.45 2.66 2.64 2.51 2.38 2.23 2.16 2.05 1.81 1.56 1.36 1.34 1.33 1.19 1.03 0.97 0.90 0.84 0.73 0.70 0.61 0.53 0.49 0.46 0.41 0.38 0.34 0.30
0.63 0.59 0.66 0.72 0.75 0.75 0.83 0.70 0.68 0.62 0.61 0.77 0.96 1.10 1.32 1.51 1.69 2.08 2.39 2.57 2.43 2.31 2.52 2.66 2.73 2.60 2.37 2.15 2.03 1.92 1.73 1.54 1.49 1.45 1.36 1.24 1.10 0.99 0.88 0.75 0.72 0.67 0.57 0.50 0.49 0.46 0.44 0.41 0.35
0.73 0.78 0.83 0.86 0.84 0.81 0.93 0.92 0.69 0.66 0.76 0.84 0.93 1.09 1.30 1.53 1.82 2.09 2.21 2.43 2.57 2.39 2.45 2.60 2.74 2.80 2.62 2.39 2.18 2.04 1.90 1.73 1.61 1.54 1.56 1.47 1.31 1.16 1.07 0.90 0.76 0.69 0.70 0.66 0.60 0.57 0.49 0.40 0.35
1.14 1.08 1.01 0.86 0.81 0.81 1.05 1.04 0.70 0.66 0.80 0.85 0.92 1.07 1.24 1.43 1.72 2.00 2.19 2.39 2.69 2.70 2.65 2.73 2.71 2.81 2.81 2.65 2.40 2.16 2.03 1.86 1.64 1.46 1.49 1.54 1.43 1.31 1.24 1.17 1.01 0.88 0.85 0.83 0.70 0.60 0.57 0.45 0.36
1.22 0.99 0.80 0.75 0.75 0.83 0.97 0.92 0.76 0.70 0.73 0.83 0.91 1.00 1.22 1.33 1.49 1.74 2.03 2.34 2.67 2.82 2.89 2.98 2.93 2.77 2.80 2.85 2.69 2.38 2.10 1.90 1.74 1.53 1.40 1.45 1.49 1.38 1.25 1.15 1.15 1.14 1.04 0.92 0.82 0.67 0.66 0.59 0.46
0.75 0.59 0.54 0.58 0.60 0.67 0.76 0.74 0.77 0.80 0.78 0.75 0.84 0.87 1.07 1.18 1.24 1.42 1.73 2.17 2.59 2.82 2.86 2.93 3.01 3.04 3.02 3.03 3.01 2.72 2.37 2.04 1.85 1.71 1.56 1.50 1.53 1.52 1.42 1.27 1.21 1.23 1.21 1.12 1.00 0.87 0.76 0.69 0.64
0.59 0.54 0.48 0.38 0.40 0.55 0.63 0.70 0.80 0.85 0.78 0.75 0.83 0.83 0.88 0.99 1.10 1.22 1.46 1.82 2.20 2.65 2.73 2.72 2.76 2.90 3.01 3.04 2.95 2.77 2.46 2.24 2.00 1.83 1.75 1.67 1.61 1.60 1.61 1.47 1.40 1.40 1.36 1.30 1.26 1.19 1.04 0.86 0.81
0.67 0.64 0.55 0.44 0.43 0.58 0.63 0.73 0.72 0.76 0.79 0.76 0.77 0.78 0.76 0.86 1.03 1.16 1.34 1.59 1.78 2.21 2.55 2.58 2.63 2.68 2.73 2.73 2.84 2.88 2.75 2.50 2.27 2.05 1.87 1.74 1.61 1.57 1.60 1.63 1.56 1.45 1.44 1.42 1.38 1.30 1.18 1.06 0.99
0.69 0.55 0.52 0.60 0.62 0.67 0.70 0.76 0.67 0.65 0.71 0.68 0.66 0.71 0.68 0.75 0.95 1.08 1.20 1.48 1.63 1.93 2.32 2.50 2.59 2.66 2.63 2.73 3.03 3.16 3.10 2.79 2.51 2.25 2.00 1.81 1.72 1.67 1.57 1.53 1.56 1.53 1.50 1.47 1.44 1.45 1.45 1.34 1.21
0.75 0.45 0.49 0.65 0.89 0.94 0.73 0.89 0.66 0.63 0.62 0.63 0.63 0.68 0.68 0.71 0.85 0.93 1.03 1.32 1.49 1.68 1.96 2.19 2.49 2.67 2.74 2.80 2.94 2.92 2.72 2.49 2.25 2.19 2.09 1.97 1.86 1.73 1.67 1.62 1.58 1.56 1.53 1.48 1.50 1.52 1.53 1.56 1.45
0.70 0.53 0.61 0.74 0.99 1.02 0.63 0.78 0.65 0.59 0.63 0.66 0.67 0.75 0.77 0.74 0.82 0.94 1.00 1.13 1.24 1.47 1.74 1.85 2.07 2.33 2.48 2.58 2.75 2.84 2.64 2.39 2.21 2.15 2.08 2.00 1.95 1.81 1.69 1.63 1.63 1.60 1.55 1.52 1.53 1.56 1.56 1.58 1.58
0.75 0.92 0.94 0.95 1.33 1.36 0.60 0.64 0.64 0.64 0.66 0.65 0.66 0.72 0.76 0.76 0.83 0.91 0.92 1.00 1.10 1.24 1.54 1.69 1.85 2.02 2.22 2.29 2.47 2.70 2.56 2.30 2.05 1.96 1.93 1.85 1.81 1.73 1.60 1.55 1.54 1.52 1.48 1.45 1.42 1.46 1.50 1.51 1.48
1.14 1.61 1.91 1.77 1.65 1.04 0.46 0.59 0.72 0.64 0.59 0.64 0.71 0.70 0.71 0.72 0.74 0.82 0.87 0.99 1.07 1.18 1.29 1.37 1.49 1.63 1.85 2.00 2.09 2.30 2.35 2.28 2.09 1.87 1.81 1.74 1.65 1.55 1.46 1.43 1.41 1.44 1.41 1.41 1.41 1.39 1.36 1.42 1.44
1.11 1.31 1.53 1.30 0.86 0.54 0.45 0.62 0.68 0.58 0.59 0.63 0.68 0.69 0.64 0.68 0.72 0.73 0.79 0.91 1.03 1.13 1.13 1.09 1.16 1.33 1.46 1.58 1.66 1.83 1.87 1.96 1.99 1.87 1.70 1.62 1.53 1.45 1.41 1.43 1.43 1.45 1.46 1.39 1.39 1.37 1.32 1.33 1.34
1.07 1.08 0.91 1.14 0.80 0.63 0.56 0.57 0.59 0.53 0.57 0.58 0.59 0.63 0.65 0.66 0.66 0.71 0.80 0.86 0.91 0.98 0.99 0.97 1.01 1.09 1.15 1.30 1.39 1.52 1.54 1.56 1.66 1.68 1.63 1.58 1.49 1.40 1.39 1.43 1.41 1.36 1.35 1.30 1.31 1.31 1.24 1.17 1.17
0.92 0.90 1.08 1.54 1.30 0.89 0.57 0.55 0.74 0.64 0.61 0.64 0.61 0.63 0.67 0.65 0.67 0.75 0.85 0.90 0.90 0.93 0.93 0.87 0.90 0.97 1.02 1.11 1.24 1.33 1.35 1.39 1.44 1.46 1.41 1.35 1.32 1.27 1.26 1.30 1.33 1.29 1.24 1.22 1.20 1.17 1.13 1.10 1.02
0.89 1.02 1.16 1.21 1.01 0.97 0.74 0.74 0.75 0.63 0.58 0.58 0.56 0.58 0.60 0.60 0.65 0.76 0.85 0.94 0.94 0.89 0.85 0.83 0.80 0.86 0.92 0.98 1.05 1.14 1.15 1.18 1.27 1.28 1.26 1.22 1.13 1.05 1.04 1.12 1.15 1.12 1.08 1.07 1.07 1.04 1.03 1.03 1.01
0.73 0.79 0.97 1.33 0.98 0.77 0.80 0.81 0.65 0.55 0.49 0.48 0.48 0.50 0.51 0.51 0.57 0.67 0.73 0.77 0.80 0.81 0.84 0.86 0.81 0.81 0.83 0.91 0.98 1.02 1.04 1.02 1.08 1.11 1.14 1.12 1.07 1.00 0.95 0.98 1.03 1.01 0.97 0.94 0.95 0.94 0.94 0.98 1.00